Regional Weather Roundup
Issued by NWS

Home | Current Version | Previous Version | Text Only | Print | Product List | Glossary Off
Versions: 1 2 3 4 5 6 7 8 9 10 11 12 13 14 15 16 17 18 19 20 21 22 23 24 25 26 27 28 29 30 31 32 33 34 35 36 37 38 39 40 41 42 43 44 45 46 47 48 49 50

000
ASUS45 KPSR 270500
RWRAZ

PRELIMINARY ARIZONA REGIONAL HOURLY WEATHER ROUNDUP
NATIONAL WEATHER SERVICE PHOENIX AZ
1000 PM MST MON JAN 26 2015

NOTE: FAIR INDICATES FEW OR NO CLOUDS BELOW 12,000 FEET WITH NO
SIGNIFICANT WEATHER AND/OR OBSTRUCTIONS TO VISIBILITY.

AZZ001>003-036-270600-
NORTHWEST ARIZONA

CITY           SKY/WX    TMP DP  RH WIND       PRES   REMARKS
KINGMAN        LGT RAIN  51  39  63 SW8       30.17R
$$

AZZ004>008-015-016-018-270600-
NORTH CENTRAL ARIZONA

CITY           SKY/WX    TMP DP  RH WIND       PRES   REMARKS
GRAND CANYON   CLOUDY    43  23  45 E3        30.27F
PRESCOTT       CLOUDY    53  25  33 S6        30.23R
FLAGSTAFF      NOT AVBL
PAYSON         CLOUDY    50  27  40 CALM      30.27R
$$

AZZ009>014-017-270600-
NORTHEAST ARIZONA

CITY           SKY/WX    TMP DP  RH WIND       PRES   REMARKS
WINSLOW        NOT AVBL
SAINT JOHNS    MOCLDY    39  27  62 S3        30.28F
SHOW LOW       CLOUDY    37  25  60 SW5       30.30F WCI  34
$$

AZZ023-270600-
GREATER PHOENIX AREA

CITY           SKY/WX    TMP DP  RH WIND       PRES   REMARKS
PHOENIX        CLOUDY    60  46  59 S7        30.16R
LUKE AFB       NOT AVBL
DEER VALLEY    LGT RAIN  57  43  59 NE5       30.17R
SCOTTSDALE     LGT RAIN  59  44  57 NE7       30.19R
MESA-GATEWAY   LGT RAIN  55  46  71 E3        30.20R
$$

AZZ027-028-270600-
SOUTHWEST MARICOPA COUNTY AND PINAL COUNTY

CITY           SKY/WX    TMP DP  RH WIND       PRES   REMARKS
CASA GRANDE    CLOUDY    55  48  76 NE7       30.17F
GILA BEND      MOCLDY    53  49  87 W2        30.14R
$$

AZZ503-504-507>509-270600-
SOUTHEAST ARIZONA

CITY           SKY/WX    TMP DP  RH WIND       PRES   REMARKS
TUCSON         CLOUDY    59  42  53 NE8       30.21F
DAVIS-MONTHAN  LGT RAIN  56  42  60 E10       30.18F
NOGALES        MOCLDY    54  51  90 CALM      30.22R
SIERRA VISTA   CLOUDY    50  43  76 NE3       30.25S
DOUGLAS        CLOUDY    52  30  43 NW3       30.25R
SAFFORD        CLOUDY    55  26  32 E6        30.23R
$$

AZZ020-021-025-026-031-270600-
SOUTHWEST ARIZONA

CITY           SKY/WX    TMP DP  RH WIND       PRES   REMARKS
YUMA           CLOUDY    58  51  78 NE8       30.13R
$$

CAZ031-033-041-043-047-048-061-270600-
SOUTHERN CALIFORNIA

CITY           SKY/WX    TMP DP  RH WIND       PRES   REMARKS
DOWNTOWN L.A.  CLOUDY    58  52  80 CALM      30.09S
L.A. AIRPORT   LGT RAIN  56  53  90 E6        30.10S
SAN DIEGO      PTCLDY    59  50  72 CALM      30.09R
BURBANK        LGT RAIN  55  53  93 E3        30.09S
ONTARIO        CLOUDY    55  52  89 NW6       30.09S
RIVERSIDE      CLOUDY    55  53  93 VRB3      30.10R
PALM SPRINGS   CLOUDY    57  55  93 SE3       30.15R
EL CENTRO NAS  CLOUDY    58  56  93 CALM      30.13S
IMPERIAL       CLOUDY    57  55  93 N3        30.13S
BLYTHE         LGT RAIN  55  53  93 N7        30.15R
NEEDLES        CLOUDY    56  51  84 CALM      30.16R
$$

NVZ020-UTZ003-270600-
SOUTHERN NEVADA-UTAH

CITY           SKY/WX    TMP DP  RH WIND       PRES   REMARKS
LAS VEGAS      NOT AVBL
SALT LAKE CITY PTCLDY    34  31  88 E6        30.21F WCI  29
$$

NMZ009-TXZ055-270600-
NEW MEXICO-WEST TEXAS

CITY           SKY/WX    TMP DP  RH WIND       PRES   REMARKS
ALBUQUERQUE    PTCLDY    38  26  62 S5        30.34S WCI  34
EL PASO        MOCLDY    50  32  50 N7        30.29R
$$


........................KEY........................
SKY/WX - SKY CONDITION/WEATHER
TMP    - TEMPERATURE IN FAHRENHEIT
DP     - DEW POINT IN FAHRENHEIT
RH     - RELATIVE HUMIDITY IN PERCENT
WIND   - DIRECTION AND SPEED IN MILES PER HOUR (MPH)
VRB    - VARIABLE WIND DIRECTION
PRES   - MEAN SEA LEVEL PRESSURE IN INCHES OF MERCURY
         F - FALLING PRESSURE   R - RISING PRESSURE
         S - STEADY PRESSURE
VSB    - VISIBILITY IN MILES
HX     - HEAT INDEX IN FAHRENHEIT
WCI    - WIND CHILL INDEX IN FAHRENHEIT
TC     - TEMPERATURE IN CELSIUS WHICH IS ALSO KNOWN AS
         TEMPERATURE IN CENTIGRADE
AFB    - AIR FORCE BASE
         LUKE AFB IS LUKE AIR FORCE BASE
         DAVIS-MONTHAN IS DAVIS-MONTHAN AIR FORCE BASE
NAS    - NAVAL AIR STATION
         EL CENTRO NAS IS EL CENTRO NAVAL AIR STATION
N/A    - NOT AVAILABLE


USA.gov is the U.S. government's official web portal to all federal, state and local government web resources and services.